Regional Weather Roundup
Issued by NWS Charleston, SC

Current Version | Previous Version | Graphics & Text | Print | Product List | Glossary On
Versions: 1 2 3 4 5 6 7 8 9 10 11 12 13 14 15 16 17 18 19 20 21 22 23 24 25 26 27 28 29 30 31 32 33 34 35 36 37 38 39 40 41 42 43 44 45 46 47 48 49 50
000
ASUS42 KCHS 221628
RWRCHS

REGIONAL WEATHER ROUNDUP
NATIONAL WEATHER SERVICE CHARLESTON SC
1200 PM EDT MON MAY 22 2017

NOTE: "FAIR" INDICATES FEW OR NO CLOUDS BELOW 12,000 FEET WITH NO
SIGNIFICANT WEATHER AND/OR OBSTRUCTIONS TO VISIBILITY.

NOT ALL STATIONS ARE QUALITY CONTROLLED. USE DATA WITH CAUTION...
ESPECIALLY DEWPOINT OBSERVATIONS.

SCZ027-030-031-034>040-042>050-221700-
...SOUTHEAST SOUTH CAROLINA...

CITY           SKY/WX    TMP DP  RH WIND       PRES   REMARKS
N CHARLESTON   CLOUDY    82  70  66 SW8       30.05F
WATERFRONT PRK NOT AVBL
JOHNS ISLAND   FAIR      82  73  74 S9        30.06F
PINOPOLIS      NOT AVBL
MONCKS CORNER  FAIR      81  70  69 SW7       30.05F
SUMMERVILLE    FAIR      81  72  74 SW3       30.06F
BEAUFORT MCAS  PTSUNNY   85  70  60 VRB5      30.06F
BEAUFORT ARPT  PTSUNNY   82  72  69 SW6       30.05F
HILTON HEAD IS MOSUNNY   82  72  69 S3        30.06F
WALTERBORO     CLOUDY    82  70  65 SW3       30.06F
ALLENDALE      FAIR      84  68  58 SW5       30.03F

...SOUTHERN MIDLANDS AND PEE DEE...

CITY           SKY/WX    TMP DP  RH WIND       PRES   REMARKS
GEORGETOWN     PTSUNNY   79  72  78 S6        30.07F
KINGSTREE      PTSUNNY   81  70  69 S5        30.04F
ORANGEBURG     MOSUNNY   82  70  66 S6        30.05F
BARNWELL       PTSUNNY   84  70  61 VRB5      30.03F
AIKEN          FAIR      82  68  61 S8        30.07F
MANNING        PTSUNNY   82  73  74 SW6       30.04F
COLUMBIA       PTSUNNY   84  70  62 S5        30.02F THUNDER
SUMTER         PTSUNNY   82  70  67 W8        30.03F
FLORENCE       MOSUNNY   81  71  71 W6        30.05F
MYRTLE BEACH   PTSUNNY   81  72  74 S14       30.07F
N MYRTLE BEACH PTSUNNY   81  71  71 S14       30.06F

$$

GAZ063-065-086>088-099>101-113>116-118-119-134>141-150-221700-
...SOUTHEAST GEORGIA...

CITY           SKY/WX    TMP DP  RH WIND       PRES   REMARKS
SAVANNAH ARPT  PTSUNNY   86  68  54 S6        30.05F
HUNTER AAF     MOSUNNY   85  75  72 S9        30.03F HX  92
FORT STEWART   PTSUNNY   84  71  63 SE3       30.03F
STATESBORO     CLOUDY    83  70  64 CALM      30.04F
SYLVANIA       CLOUDY    85  71  62 CALM      30.05F
CLAXTON        PTSUNNY   82  77  85 CALM      30.04F HX  91

...CSRA...CENTRAL AND FAR SOUTHEAST GEORGIA...

CITY           SKY/WX    TMP DP  RH WIND       PRES   REMARKS
THOMSON        MOSUNNY   83  68  61 SW6       30.08F
AUGUSTA-BUSH   CLOUDY    87  68  52 S6        30.03F HX  90
AUGUSTA-DANIEL CLOUDY    84  64  50 S8        30.05F
SWAINSBORO     PTSUNNY   79  70  73 NW5       30.06F
VIDALIA        CLOUDY    81  73  78 N7        30.06F
EASTMAN        PTSUNNY   82  60  47 CALM      30.07F
HAZLEHURST     PTSUNNY   83  72  70 CALM      30.04F
ALMA           CLOUDY    84  69  60 CALM      30.05F
WAYCROSS       PTSUNNY   87  75  66 W8        30.05S HX  97
JESUP          FAIR      86  66  51 S3        30.04F
BAXLEY         PTSUNNY   82  73  74 CALM      30.04F
BRUNSWICK      MOSUNNY   86  72  62 SE5       30.05F HX  92
SAINT SIMONS   SUNNY     84  73  69 SE9       30.06F HX  90

$$

SCZ027-028-034-036>038-045-046-048>050-GAZ119-141-221700-
...LAKE AND SUPPLEMENTAL COASTAL OBSERVATIONS...

STATION/POSITION TIME  TEMP    WIND        PRES    WAVE   SWELL
                       AIR SEA DIR/SP/G            HT/PER HT/PER/DIR
                 (UTC) (F)     (DEG/KT/KT) (MB)    (FT/S) (FT/S/D)
WINYAH BAY       1545   79     210/  9     1018.0S
LAKE MURRAY      1620   79     100/  2/  3 1015.9
ACE BASIN NERRS  1545   82        CALM     1018.0F
FORT PULASKI     1600   81 80  230/  6/  8 1018.1
SAPELO ISLAND    1600   85     190/  3     1018.0

$$

ANZ835-935-AMZ111-154-330-350-352-354-370-450-454-472-221700-
...C-MAN AND BUOY OBSERVATIONS...

STATION/POSITION TIME  TEMP    WIND        PRES    WAVE   SWELL
                       AIR SEA DIR/SP/G            HT/PER HT/PER/DIR
                 (UTC) (F)     (DEG/KT/KT) (MB)    (FT/S) (FT/S/D)
BUOY 41004       1610   78 78  200/ 10/ 12 1018.3
BUOY 41008       1550   78 78  190/  8/ 10 1018.2S   2/ 4   2/120/ 4
FOLLY BEACH CMAN 1600   78     200/  9/ 10 1018.8F
CAPERS NEARSHORE 1608   80 76  220/ 10/ 16 1017.9F
FRIPP NEARSHORE  1608   78 80  200/  6/ 10 1017.8F


STATION/POSITION TIME  TEMP    WIND        PRES    WAVE   SWELL
                       AIR SEA DIR/SP/G            HT/PER HT/PER/DIR
                 (UTC) (F)     (DEG/KT/KT) (MB)    (FT/S) (FT/S/D)
5E ST. MARYS GA  1600      80                N/A     2/ 4
FRYING PAN BUOY  1610   77 77  220/ 12/ 14 1018.5
BUOY 41025       1550   75 78  160/  8/  8 1018.6F   4/ 8   3/ 60/ 8
CAPE LOOKOUT NC  1600   78     210/ 13/ 16 1017.9F
BUOY 41002       1550   75 77  240/  6/  8 1020.2S   3/ 8   3/ 30/ 8
BUOY 41010       1610   78 79  140/  8/ 10 1019.5
ST AUGUSTINE FL  1600   78 80  120/  8/  8 1018.8F


$$




USA.gov is the U.S. government's official web portal to all federal, state and local government web resources and services.